EUTELSAT 5 WEST B

Last updated on Wed Sep 17 2025 00:02:50 GMT+0000 (Coordinated Universal Time)

1 44624U 19067A 25259.58260535 -.00000062 00000+0 00000+0 0 9997 2 44624 0.0788 325.5486 0003126 218.0402 16.9191 1.00271364 21696
UTC large
Height (km)
Speed (km/s)
/
Latitude / Longitude
Inclination (degrees)
Orbital Period (minutes)
Azimuth
Elevation
Range (km)
Doppler Factor

Next 0 passes for location: London (51.5072 / 0.1276)

Sorry there are no passes over London.